Location: Dittelbrunn
(50.0738°N, 10.2196°E)
Time: 23:23:31
(UTC+00:00)

Cosmos 1833 Rocket - Visible Passes

Search period start: 23 January 2021 00:00
Search period end: 02 February 2021 00:00
Orbit: 834 x 838 km, 71.0° (Epoch: 23 January)

Date Brightness Start Highest point End Pass type
(mag) Time Alt. Az. Time Alt. Az. Time Alt. Az.
23 Jan 3.7 16:59:24 10° NNW 17:04:01 25° NE 17:07:58 13° E visible
23 Jan 2.7 18:42:56 10° NNW 18:48:35 78° WSW 18:49:44 57° S visible
23 Jan 5.3 20:28:51 10° WNW 20:31:31 14° W 20:31:31 14° W visible
24 Jan 3.8 16:42:42 10° NNW 16:47:13 24° NE 16:51:43 10° E visible
24 Jan 2.6 18:26:12 10° NNW 18:31:51 84° WSW 18:34:40 31° SSE visible
24 Jan 5.2 20:11:50 10° WNW 20:14:54 15° W 20:16:28 14° WSW visible
25 Jan 2.6 18:09:27 10° NNW 18:15:07 89° WSW 18:20:05 14° SSE visible
25 Jan 5.2 19:54:53 10° WNW 19:58:14 16° W 20:01:35 10° SW visible
26 Jan 2.6 17:52:43 10° NNW 17:58:22 86° ENE 18:04:00 10° SSE visible
26 Jan 5.2 19:37:57 10° WNW 19:41:33 18° W 19:45:10 10° SW visible
27 Jan 2.6 17:35:58 10° NNW 17:41:37 80° ENE 17:47:15 10° SSE visible
27 Jan 5.1 19:21:02 10° WNW 19:24:53 19° W 19:28:42 10° SW visible
28 Jan 2.6 17:19:14 10° NNW 17:24:53 75° ENE 17:30:30 10° SE visible
28 Jan 5.1 19:04:09 10° NW 19:08:11 21° W 19:12:14 10° SSW visible
29 Jan 2.6 17:02:30 10° NNW 17:08:08 70° ENE 17:13:44 10° SE visible
29 Jan 5.0 18:47:17 10° NW 18:51:31 22° WSW 18:55:44 10° SSW visible
30 Jan 2.7 16:45:45 10° NNW 16:51:23 66° ENE 16:56:58 10° SE visible
30 Jan 5.0 18:30:26 10° NW 18:34:50 24° WSW 18:39:12 10° SSW visible
31 Jan 4.9 18:13:35 10° NW 18:18:08 26° WSW 18:22:40 10° SSW visible
01 Feb 4.9 17:56:46 10° NW 18:01:27 28° WSW 18:06:07 10° SSW visible
